Date,TemperatureHighF,TemperatureAvgF,TemperatureLowF,DewpointHighF,DewpointAvgF,DewpointLowF,HumidityHigh,HumidityAvg,HumidityLow,PressureMaxIn,PressureMinIn,WindSpeedMaxMPH,WindSpeedAvgMPH,GustSpeedMaxMPH,PrecipitationSumIn
2013-1-1,51,47,38,50,45,37,98,95,74,30.05,29.92,12,4,24,1.02
2013-1-2,38,37,35,37,35,32,96,93,88,30.10,30.02,13,8,19,0.63
2013-1-5,47,43,39,37,32,24,92,66,41,30.25,30.21,5,2,9,0.03
2013-1-6,47,41,34,41,36,29,96,84,63,30.29,30.14,14,3,17,0.04
2013-1-7,55,38,27,33,28,23,87,71,40,30.34,30.21,11,3,16,0.00
2013-1-8,60,48,35,44,37,28,82,67,51,30.29,30.19,10,4,16,0.00
2013-1-9,59,55,51,57,52,44,98,92,76,30.33,30.22,9,2,12,0.49
2013-1-10,66,61,57,60,58,54,98,88,79,30.30,29.99,21,8,31,0.27
2013-1-11,68,65,62,64,61,59,97,88,77,30.07,29.98,13,6,24,0.02
2013-1-12,71,67,65,66,63,58,97,87,73,30.03,29.88,11,4,21,0.06
2013-1-13,69,60,40,64,57,37,96,88,72,30.10,29.84,16,7,27,0.93
2013-1-14,40,35,32,37,33,30,96,92,86,30.22,30.08,20,11,27,0.93
2013-1-15,39,36,34,38,35,33,98,97,96,30.12,29.90,13,7,20,1.32
2013-1-16,38,37,36,37,36,35,98,97,96,30.04,29.91,12,5,16,0.83
2013-1-17,41,37,33,37,32,28,95,83,71,30.34,29.88,19,9,29,0.14
2013-1-18,54,38,29,35,29,21,90,73,30,30.52,30.34,9,2,12,0.01
2013-1-19,55,44,31,33,30,28,88,61,37,30.35,30.16,11,3,20,0.01
2013-1-20,59,44,34,38,34,30,86,67,42,30.19,30.09,11,2,14,0.01
2013-1-21,45,37,30,32,20,14,83,53,29,30.22,30.07,12,6,22,0.00
2013-1-22,38,31,23,19,14,10,64,49,33,30.35,30.20,14,4,18,0.00
2013-1-23,55,43,32,38,27,18,66,54,41,30.32,30.13,11,4,17,0.00
2013-1-24,48,40,33,38,23,12,77,52,33,30.35,30.14,18,8,27,0.00
2013-1-25,48,43,38,45,33,15,97,72,36,30.21,30.04,15,5,26,0.14
2013-1-26,51,40,32,37,33,30,96,75,47,30.27,30.15,11,5,15,0.01
2013-1-27,51,46,36,41,35,30,81,67,59,30.31,30.22,11,4,19,0.00
2013-1-28,63,55,49,52,46,35,85,71,57,30.27,30.12,12,6,21,0.00
2013-1-29,69,61,55,62,57,51,93,86,77,30.13,29.69,14,7,28,0.00
2013-1-30,70,54,38,64,49,23,96,83,55,29.88,29.51,23,10,35,1.12
2013-1-31,48,42,32,28,26,22,75,53,37,30.12,29.88,14,8,26,0.00
2013-2-1,43,31,24,33,15,9,73,54,34,30.40,30.10,15,5,24,0.00
2013-2-2,41,34,26,38,27,15,95,76,53,30.28,30.06,8,2,19,0.03
2013-2-3,54,42,32,39,30,24,98,69,32,30.11,30.01,18,6,26,0.01
2013-2-4,52,41,30,34,29,25,88,65,36,30.09,29.90,9,2,13,0.00
2013-2-5,62,51,43,47,42,33,92,72,45,30.01,29.89,7,2,13,0.02
2013-2-6,66,49,34,46,37,33,98,67,31,30.15,30.01,6,2,9,0.01
2013-2-7,59,52,47,50,44,36,88,74,58,30.04,29.88,11,3,17,0.01
2013-2-8,50,44,35,47,39,29,97,83,67,30.23,29.85,17,7,25,0.20
2013-2-9,61,46,31,36,30,27,85,58,28,30.27,30.10,11,4,18,0.02
2013-2-10,59,52,49,56,43,32,96,73,48,30.12,29.86,18,8,28,0.49
2013-2-11,60,53,44,59,45,34,96,76,48,30.14,29.90,9,3,16,0.01
2013-2-12,53,46,40,41,36,30,91,69,41,30.11,29.74,11,4,18,0.16
2013-2-13,46,43,40,44,39,34,97,85,74,29.98,29.64,15,6,21,0.04
2013-2-14,58,45,32,39,35,30,94,70,35,30.04,29.96,12,3,18,0.00
2013-2-15,55,45,37,41,34,27,89,69,48,30.07,30.00,12,4,19,0.00
2013-2-16,38,33,28,27,17,9,69,51,34,30.16,30.04,14,8,25,0.00
2013-2-17,47,34,21,20,16,11,78,49,28,30.25,30.14,10,2,15,0.00
2013-2-18,60,49,37,41,28,18,79,46,35,30.21,29.86,19,8,31,0.20
2013-2-19,51,45,33,47,31,14,96,62,23,30.19,29.86,20,8,27,0.41
2013-2-20,38,33,28,23,19,16,75,56,43,30.24,30.13,13,6,19,0.00
2013-2-21,57,44,31,47,28,18,94,60,22,30.13,29.79,19,7,29,0.66
2013-2-22,52,49,46,48,46,44,95,89,82,30.03,29.86,11,5,18,0.48
2013-2-23,53,46,38,45,43,35,97,89,69,29.97,29.83,7,2,11,0.06
2013-2-24,58,45,34,35,30,27,85,60,34,30.04,29.91,11,5,14,0.00
2013-2-25,60,49,39,45,35,26,92,58,36,29.91,29.47,21,9,39,0.07
2013-2-26,48,45,39,45,39,33,95,81,62,29.73,29.39,28,12,44,0.15
2013-2-27,53,44,40,37,33,30,72,65,53,29.88,29.73,15,9,20,0.01
2013-2-28,41,38,35,33,27,24,72,64,59,30.01,29.83,12,7,24,0.00
2013-3-1,39,36,33,31,29,26,93,75,60,30.02,29.96,11,5,13,0.00
2013-3-2,35,32,30,31,28,25,93,85,71,30.08,29.96,11,7,18,0.01
2013-3-3,43,33,27,25,20,12,80,59,29,30.11,30.03,13,5,22,0.01
2013-3-4,58,45,29,39,26,22,82,52,30,30.10,29.84,14,5,25,0.00
2013-3-5,58,49,33,56,43,20,95,79,55,29.99,29.66,24,10,33,0.76
2013-3-6,42,36,31,28,24,18,78,62,52,30.22,29.99,15,8,25,0.08
2013-3-7,49,37,27,33,28,23,87,71,51,30.29,30.21,10,5,5,0.00
2013-3-8,62,44,29,32,26,18,87,56,20,30.32,30.17,10,4,14,0.00
2013-3-9,66,53,39,36,31,26,72,44,31,30.19,30.02,13,6,21,0.00
2013-3-10,73,62,52,47,38,32,52,41,31,30.05,29.81,18,10,31,0.00
2013-3-11,66,50,40,54,44,30,97,80,50,29.93,29.74,20,7,30,1.12
2013-3-12,56,44,32,34,30,26,86,61,38,30.12,29.92,10,5,20,0.08
2013-3-13,49,42,35,29,24,17,73,50,29,30.32,30.10,16,8,27,0.00
2013-3-14,53,40,26,29,20,15,76,48,23,30.38,30.19,11,2,16,0.00
2013-3-15,75,58,40,44,35,24,54,44,31,30.19,29.91,17,6,28,0.00
2013-3-16,75,65,55,48,44,41,65,48,33,29.92,29.81,18,7,30,0.00
2013-3-17,70,62,56,53,48,44,80,62,41,29.92,29.79,16,5,24,0.00
2013-3-18,64,59,51,60,55,44,96,86,70,29.90,29.69,13,6,35,0.72
2013-3-19,60,50,37,44,33,20,95,58,22,30.10,29.90,12,6,19,0.11
2013-3-20,55,46,38,28,23,16,65,42,25,30.12,29.93,18,6,33,0.00
2013-3-21,46,36,26,29,16,9,70,46,26,30.04,29.89,14,5,20,0.00
2013-3-22,49,44,39,37,29,22,70,56,48,29.98,29.89,10,3,16,0.00
2013-3-23,54,48,44,50,46,37,98,92,69,29.92,29.66,12,4,20,1.05
2013-3-24,60,53,42,52,47,30,98,82,58,29.66,29.42,26,10,40,0.93
2013-3-26,39,38,37,27,26,25,65,61,56,30.29,30.24,7,2,11,0.00
2013-3-27,53,40,27,31,27,23,86,61,36,30.35,30.23,10,3,18,0.00
2013-3-28,63,48,34,35,30,24,83,55,29,30.32,30.21,9,2,17,0.00
2013-3-29,67,52,38,41,35,31,85,56,28,30.24,30.10,14,3,19,0.00
2013-3-30,69,56,47,55,46,-100,98,74,48,30.13,29.92,9,2,13,0.48
2013-3-31,64,57,54,59,55,53,98,95,78,29.92,29.82,12,4,17,0.50
2013-4-1,67,56,47,54,47,37,99,76,47,30.06,29.86,11,3,16,0.00
2013-4-2,53,48,41,40,29,24,70,49,33,30.19,30.05,14,8,20,0.00
2013-4-3,56,48,42,44,32,23,85,54,31,30.17,30.06,14,6,24,0.03
2013-4-4,47,45,44,44,42,38,96,92,71,30.09,29.91,14,5,20,0.44
2013-4-5,65,52,44,45,40,33,97,69,30,30.06,29.94,13,4,19,0.01
2013-4-6,73,58,39,44,38,35,92,53,26,30.11,29.97,10,3,17,0.00
2013-4-7,73,63,53,50,45,38,69,53,35,30.09,29.94,15,3,21,0.00
2013-4-8,78,67,56,58,53,48,81,61,45,30.03,29.93,15,5,24,0.00
2013-4-9,82,71,60,61,56,53,82,61,43,30.11,29.93,17,4,25,0.00
2013-4-10,85,75,65,60,56,52,72,54,33,30.02,29.79,12,5,22,0.02
2013-4-11,76,68,54,64,59,52,99,76,53,29.81,29.51,22,8,37,0.96
2013-4-12,64,54,43,52,41,33,98,67,38,29.94,29.67,15,6,21,0.26
2013-4-13,73,57,43,47,42,38,90,62,30,30.05,29.93,10,2,16,0.00
2013-4-14,64,56,49,54,47,37,86,73,40,29.96,29.81,14,5,29,0.00
2013-4-15,79,67,54,61,57,51,92,71,52,30.00,29.84,10,4,17,0.00
2013-4-16,81,71,64,67,62,58,88,74,60,30.12,30.00,10,4,17,0.08
2013-4-17,85,76,68,67,64,61,84,67,45,30.14,29.97,10,4,19,0.00
2013-4-18,81,74,66,63,60,56,84,64,42,29.97,29.64,17,8,29,0.00
2013-4-19,75,50,41,65,42,32,96,75,49,30.10,29.61,20,9,29,7.23
2013-4-20,62,50,35,41,33,27,94,58,27,30.22,30.10,13,4,20,0.05
2013-4-21,71,57,42,44,38,34,77,52,27,30.29,30.16,10,4,21,0.05
2013-4-22,74,62,51,49,44,40,71,53,33,30.23,30.06,12,5,21,0.00
2013-4-23,74,64,55,53,47,39,74,55,40,30.13,29.96,12,5,21,0.00
2013-4-24,66,62,50,59,55,48,93,77,64,30.08,29.92,15,6,21,0.21
2013-4-29,72,65,55,55,53,51,89,66,49,29.93,29.88,8,1,10,0.00
2013-4-30,80,66,50,57,52,49,96,66,37,29.98,29.89,7,2,13,0.00
2013-5-1,76,70,65,60,57,52,81,65,50,30.09,29.98,16,7,28,0.00
2013-5-2,71,66,61,59,55,51,74,68,63,30.11,30.03,13,7,25,0.00
2013-5-3,73,64,47,56,53,44,94,69,50,29.90,29.81,20,13,34,0.31
2013-5-4,52,45,41,46,43,40,98,92,73,29.94,29.83,10,4,17,2.10
2013-5-5,60,49,43,49,46,41,98,89,60,29.84,29.75,14,4,19,0.64
2013-5-6,56,51,48,54,50,47,99,96,87,29.88,29.73,12,3,19,1.72
2013-5-7,67,56,43,55,50,42,99,83,53,29.96,29.85,10,2,19,0.09
2013-5-8,76,64,52,61,56,50,96,76,47,30.03,29.94,13,2,16,0.02
2013-5-9,81,69,54,61,57,53,95,68,43,30.08,29.96,11,2,18,0.01
2013-5-10,72,64,60,61,56,-100,94,81,67,30.00,29.87,12,2,22,0.40
2013-5-11,73,66,55,64,58,-100,92,78,55,29.98,29.88,16,4,22,0.00
2013-5-12,65,58,50,52,38,29,91,52,28,30.12,29.98,14,5,21,0.00
2013-5-13,69,57,41,47,40,35,87,57,34,30.23,30.10,12,3,20,0.00
2013-5-14,82,67,50,57,51,46,88,60,37,30.16,30.01,15,4,25,0.00
2013-5-15,83,71,61,56,54,48,75,56,30,30.12,29.96,11,3,19,0.00
2013-5-16,82,66,62,62,37,-100,81,59,31,30.01,29.92,11,2,18,0.00
2013-5-17,73,67,65,67,58,-100,96,85,64,30.02,29.92,9,3,14,0.58
2013-5-18,81,72,66,70,67,65,96,84,64,29.99,29.92,10,2,16,0.22
2013-5-19,77,72,67,72,67,59,94,87,73,29.98,29.93,9,2,12,0.00
2013-5-20,86,74,65,69,65,59,85,74,53,30.03,29.91,7,3,14,0.00
2013-5-21,87,78,66,71,66,62,92,68,45,29.96,29.80,9,3,17,0.00
2013-5-22,80,73,65,67,64,61,94,75,52,29.90,29.80,16,4,24,0.09
2013-5-23,80,71,62,67,60,55,98,72,42,30.03,29.87,17,6,22,0.09
2013-5-24,73,64,56,56,50,44,88,63,35,30.22,30.02,16,6,25,0.01
2013-5-25,81,65,50,51,46,36,89,55,22,30.28,30.14,7,2,11,0.00
2013-5-26,85,70,53,56,51,47,89,56,29,30.20,30.08,8,1,12,0.00
2013-5-27,84,74,60,61,58,55,86,60,39,30.14,30.01,16,3,21,0.00
2013-5-28,85,76,65,63,59,56,81,58,40,30.10,30.00,11,3,19,0.00
2013-5-29,88,79,69,65,61,57,67,54,39,30.12,30.00,10,5,20,0.00
2013-5-30,85,78,72,68,65,61,71,63,53,30.11,29.99,15,7,27,0.00
2013-5-31,85,78,73,68,65,64,75,65,52,30.07,29.95,10,5,19,0.00
2013-6-1,84,75,69,72,67,64,94,76,60,30.00,29.87,16,5,25,0.26
2013-6-2,80,74,69,70,67,64,97,80,58,29.94,29.84,11,2,22,0.24
2013-6-3,82,73,64,67,61,56,94,70,43,29.95,29.86,10,4,18,0.00
2013-6-4,87,74,61,62,59,55,90,61,36,29.99,29.90,7,2,12,0.00
2013-6-5,82,72,66,70,65,60,96,82,56,29.94,29.83,11,2,17,0.22
2013-6-6,83,74,67,69,67,66,97,80,57,29.84,29.69,13,2,16,0.01
2013-6-7,78,72,66,68,66,63,94,83,64,29.84,29.69,8,2,16,0.01
2013-6-8,82,72,63,68,61,56,97,72,42,30.00,29.83,10,2,14,0.00
2013-6-9,86,74,68,73,67,62,90,79,52,30.00,29.86,16,3,27,0.20
2013-6-10,86,76,66,68,66,59,97,73,40,29.94,29.86,15,6,22,0.45
2013-6-11,91,82,72,73,69,67,89,69,49,30.00,29.92,12,5,21,0.00
2013-6-12,93,83,75,74,71,64,91,68,39,30.04,29.92,11,4,14,0.00
2013-6-13,90,81,72,74,70,64,89,71,56,29.93,29.76,21,7,28,0.01
2013-6-14,86,73,65,65,60,51,88,67,30,29.97,29.87,17,4,21,0.01
2013-6-19,90,79,65,68,65,60,94,64,37,30.01,29.93,10,2,16,0.00
2013-6-20,90,77,67,68,66,64,93,72,43,30.13,30.01,8,2,13,0.00
2013-6-25,90,82,74,72,70,67,90,69,47,30.11,29.96,10,3,7,0.00
2013-6-26,90,82,73,73,70,68,89,68,50,30.01,29.86,14,5,20,0.00
2013-6-27,92,81,69,76,70,66,95,73,47,29.92,29.79,18,5,28,0.24
2013-6-28,84,79,73,74,70,65,94,74,53,29.83,29.66,13,4,22,0.08
2013-6-29,87,79,70,72,63,55,93,61,35,29.70,29.62,12,3,19,0.00
2013-6-30,86,75,64,65,61,54,90,66,35,29.76,29.67,12,3,20,0.03
2013-7-1,82,73,64,69,64,61,97,76,51,29.86,29.73,11,3,17,0.03
2013-7-2,83,73,64,66,62,60,95,71,46,30.00,29.85,11,3,7,0.00
2013-7-3,86,74,67,70,67,62,94,79,48,30.07,29.99,10,2,0,0.00
2013-7-4,72,70,67,71,68,66,99,95,88,30.06,29.98,6,3,13,2.33
2013-7-5,74,70,69,71,69,68,99,97,88,30.09,30.00,8,3,14,1.83
2013-7-10,91,84,70,76,72,68,95,68,52,30.03,29.88,19,5,31,1.52
2013-7-11,87,75,70,74,71,68,99,86,64,29.98,29.83,8,1,24,1.55
2013-7-12,86,76,68,70,66,59,94,74,49,29.94,29.87,12,6,19,0.00
2013-7-13,88,76,63,70,65,58,88,69,49,30.01,29.92,10,4,16,0.00
2013-7-14,88,80,73,73,69,67,89,71,53,30.11,29.99,14,5,22,0.04
2013-7-15,90,80,74,72,69,67,90,71,48,30.22,30.11,15,5,21,0.11
2013-7-16,93,82,73,72,70,67,91,70,44,30.27,30.19,10,3,14,0.03
2013-7-17,95,83,72,74,71,68,94,70,41,30.26,30.12,10,2,13,0.00
2013-7-18,93,83,74,73,70,68,86,67,45,30.15,30.01,9,2,13,0.01
2013-7-19,90,81,71,72,70,66,93,70,45,30.08,29.92,8,2,12,0.01
2013-7-20,88,80,72,72,69,-100,90,70,52,29.99,29.86,8,2,16,0.00
2013-7-21,88,77,72,74,71,67,94,81,55,29.97,29.89,10,2,14,0.06
2013-7-22,79,74,70,72,69,66,95,86,69,29.94,29.86,9,4,18,0.07
2013-7-23,80,74,70,73,70,67,95,88,72,29.92,29.81,11,2,20,0.39
2013-7-24,85,76,70,72,70,68,97,82,58,29.88,29.81,6,1,8,0.01
2013-7-25,85,76,66,69,64,61,89,69,48,29.99,29.87,10,4,14,0.00
2013-7-26,86,75,63,67,64,61,93,69,45,30.03,29.93,8,2,13,0.00
2013-7-27,84,76,70,69,66,64,89,72,52,29.94,29.85,10,3,14,0.00
2013-7-28,84,75,67,67,64,61,91,71,52,30.04,29.90,9,4,14,0.00
2013-7-29,84,72,64,61,59,55,87,66,38,30.14,30.03,6,2,11,0.00
2013-7-30,89,75,62,73,64,59,94,73,47,30.16,30.03,11,3,18,0.19
2013-7-31,83,74,69,75,71,67,98,91,73,30.09,29.91,16,3,25,1.29
2013-8-1,87,77,71,72,68,65,96,77,52,29.98,29.92,11,3,18,0.02
2013-8-2,89,77,66,69,66,62,94,71,43,30.01,29.94,5,1,10,0.00
2013-8-3,82,75,68,73,69,65,91,83,71,30.05,29.95,6,0,11,0.03
2013-8-4,86,77,71,73,69,63,97,78,55,30.05,29.98,11,3,17,0.03
2013-8-5,85,75,67,69,64,61,86,69,47,30.04,29.93,6,1,8,0.00
2013-8-6,81,75,71,76,71,66,97,88,76,29.97,29.91,6,1,12,1.22
2013-8-7,88,76,72,76,72,69,96,88,62,29.97,29.90,17,2,28,0.07
2013-8-8,89,76,71,77,71,67,96,85,68,29.98,29.90,11,2,0,0.00
2013-8-9,89,79,72,76,73,71,97,83,59,30.03,29.95,9,2,13,0.00
2013-8-10,83,76,73,76,73,71,96,90,72,30.09,30.01,9,1,13,0.32
2013-8-11,89,78,70,75,72,69,99,85,55,30.11,30.02,13,2,20,0.09
2013-8-21,84,77,73,74,71,68,95,83,67,30.14,30.06,8,2,12,0.00
2013-8-22,89,76,69,73,70,67,97,84,53,30.13,30.00,11,1,17,0.41
2013-8-23,91,79,69,75,70,68,98,79,48,30.06,29.96,8,2,12,0.01
2013-8-24,91,78,69,72,66,-100,95,73,52,30.16,30.02,9,1,12,0.01
2013-8-25,87,77,68,69,65,63,86,68,50,30.28,30.17,11,3,18,0.00
2013-8-26,87,74,63,66,62,59,93,70,41,30.27,30.12,5,1,8,0.00
2013-8-27,87,72,63,67,63,61,94,77,46,30.14,30.06,8,1,12,0.00
2013-10-5,86,77,68,68,66,64,89,71,52,30.05,29.92,8,2,14,0.11
2013-10-6,81,70,56,72,63,51,92,79,60,29.92,29.78,14,4,24,0.25
2013-10-7,68,59,51,53,49,44,94,73,46,30.03,29.88,12,4,19,0.02
2013-10-8,80,64,50,58,52,45,87,67,42,30.05,29.98,10,4,16,0.00
2013-10-9,79,68,61,58,54,47,87,62,42,30.14,30.04,11,3,20,0.00
2013-10-10,80,66,57,62,58,54,93,77,43,30.11,29.98,8,1,11,0.00
2013-10-11,82,63,55,58,56,54,96,82,40,30.03,29.96,3,0,8,0.00
2013-10-18,65,54,47,56,49,46,99,85,54,30.04,29.92,7,1,11,0.01
2013-10-19,67,55,45,54,47,-100,94,80,57,30.01,29.88,12,3,20,0.00
2013-10-20,68,51,39,46,40,32,96,70,28,30.06,29.97,6,1,10,0.00
2013-10-21,70,54,39,51,43,37,94,70,35,30.05,29.95,6,1,12,0.00
2013-10-22,65,57,50,53,50,47,93,79,64,29.98,29.84,10,2,13,0.00
2013-10-23,56,49,40,46,39,33,92,71,44,30.07,29.84,12,4,18,0.00
2013-10-24,61,49,39,43,39,36,90,72,47,30.25,30.07,11,3,21,0.00
2013-10-25,54,47,32,36,27,24,82,47,31,30.42,30.25,9,5,16,0.00
2013-10-26,61,54,33,38,33,26,92,47,28,30.26,30.09,7,3,6,0.00
2013-10-30,77,72,67,56,54,52,69,56,42,30.09,30.05,7,2,16,0.00
2013-10-31,73,68,63,66,59,53,90,75,62,30.05,29.66,19,6,30,0.07
2013-11-1,69,63,55,64,51,41,92,69,38,29.80,29.69,11,4,24,0.10
2013-11-2,64,55,46,42,32,-100,75,48,35,30.09,29.91,12,7,19,0.00
2013-11-3,63,48,39,40,36,29,91,66,28,30.26,30.09,11,3,14,0.00
2013-11-4,66,54,38,39,37,34,89,55,32,30.32,30.21,12,5,21,0.02
2013-11-5,65,57,51,44,38,34,66,50,40,30.34,30.21,11,6,22,0.02
2013-11-6,74,64,55,61,54,40,95,70,53,30.20,30.01,10,5,21,0.33
2013-11-7,61,48,37,60,39,29,97,74,38,30.27,30.01,16,5,24,0.49
2013-11-8,59,45,31,33,29,25,90,61,27,30.33,30.23,14,4,22,0.01
2014-1-1,51,39,26,42,34,26,100,84,59,30.27,29.99,7,3,16,0.00
2014-1-2,48,37,22,48,34,13,100,89,66,30.26,29.80,18,8,29,0.30